Weather Roundup
Issued by NWS

Home | Current Version | Previous Version | Text Only | Print | Product List | Glossary On
Versions: 1 2 3 4 5 6 7 8 9 10 11 12 13 14 15 16 17 18 19 20 21 22 23 24 25 26 27 28 29 30 31 32 33 34 35 36 37 38 39 40 41 42 43 44 45 46 47 48 49 50
000
NZUS93 KARX 241710
HRRWXR

CURRENT HOURLY OBSERVATIONS ACROSS
MUCH OF THE UPPER MISSISSIPPI VALLEY
NATIONAL WEATHER SERVICE LA CROSSE WI
1100 AM CST SAT FEB 24 2018


...SOUTHEAST MINNESOTA...


CITY           SKY/WX    TMP DP  RH WIND       PRES   REMARKS
ROCHESTER      FAIR      24  22  91 SE12      29.99F FOG     WCI  13
ROCHESTER/MAYO CLOUDY    26  23  88 E9        30.01F WCI  16
WINONA         FAIR      28  27  93 SE8       30.03F FOG     WCI  20
AUSTIN         PTSUNNY   25  23  93 SE12      29.98F FOG     WCI  14
ALBERT LEA     FAIR      25  23  93 E10       29.94F FOG     WCI  15
DODGE CENTER   FAIR      25  21  86 SE9       29.99F FOG     WCI  15
PRESTON        PTSUNNY   28  23  83 SE15G22   29.98F WCI  16
OWATONNA       FAIR      23  19  86 E10G18    29.99F FOG     WCI  12
FARIBAULT      FAIR      19  19 100 NE8       30.02F FOG     WCI   9
$$

...ELSEWHERE IN MINNESOTA...


CITY           SKY/WX    TMP DP  RH WIND       PRES   REMARKS
MINNEAPOLIS    PTSUNNY   21  20  96 CALM      30.08S FOG
INTNL FALLS    FAIR      19  10  68 SE5       30.02F WCI  12
DULUTH         FAIR      20  12  71 S7        30.09S WCI  11
RED WING       PTSUNNY   21  18  86 S6        30.05F FOG     WCI  14
REDWOOD FALLS  CLOUDY    14  12  92 NE5       30.01F FOG     WCI   6
MANKATO        PTSUNNY   22  18  85 NE7       30.00F FOG     WCI  13
WORTHINGTON    LGT SNOW  21  19  92 NE5       29.91F FOG     WCI  15
FAIRMONT       PTSUNNY   18  14  84 N7        29.94F WCI   9
$$

...SOUTHWEST WISCONSIN...


CITY           SKY/WX    TMP DP  RH WIND       PRES   REMARKS
LA CROSSE      FAIR      34  25  69 E14G20    30.05F WCI  25
PRAIRIE DU CHI CLOUDY    33  26  75 E13       30.03F WCI  23
BOSCOBEL       FAIR      35  26  69 E10G25    30.06F WCI  27
LONE ROCK      PTSUNNY   33  27  78 E17       30.09F HAZE    WCI  22
PLATTEVILLE    CLOUDY    32  31  94 E17G23    30.04F WCI  21
FORT MC COY    FAIR      31  26  79 E16       30.07F WCI  20
CAMP DOUGLAS   PTSUNNY   32  25  74 E16       30.08F WCI  21
MAUSTON-NEW LI PTSUNNY   32  25  77 E8        30.08F WCI  24
VIROQUA        FAIR      30  28  90 E15       30.02F WCI  19
WIS DELLS      PTSUNNY   32  26  77 E14       30.09F WCI  22
$$

...ELSEWHERE IN WISCONSIN...


CITY           SKY/WX    TMP DP  RH WIND       PRES   REMARKS
MILWAUKEE      PTSUNNY   37  30  75 E16       30.14F WCI  28
MADISON        CLOUDY    32  26  78 E14       30.12F WCI  22
GREEN BAY      PTSUNNY   34  25  69 SE9G16    30.19F WCI  27
EAU CLAIRE     PTSUNNY   23  20  88 NE7       30.08F FOG     WCI  15
BLACK RVR FLS  FAIR      34  23  63 E10       30.07F WCI  26
MEDFORD        FAIR     N/A N/A N/A E8        30.09F
WAUSAU         FAIR      28  22  78 SE9       30.11F WCI  19
WIS RAPIDS     FAIR      31  21  66 E13       30.13F WCI  21
MARSHFIELD     CLOUDY    26  23  88 SE14      30.09F FOG     WCI  14
RICE LAKE      FAIR      20  19  96 E3        30.11F
$$

...NORTHEAST IOWA...


CITY           SKY/WX    TMP DP  RH WIND       PRES   REMARKS
WATERLOO       CLOUDY    31  28  89 SE22G29   29.93F WCI  18
DUBUQUE        CLOUDY    31  26  82 E18       30.02F WCI  19
DECORAH        CLOUDY    28  27  93 E13G20    29.99F WCI  18
MASON CITY     CLOUDY    26  32 100 E15       29.92F HAZE    WCI  14
CHARLES CITY     N/A     30  30 100 E21G28    29.94F WCI  17
OELWEIN        CLOUDY    32  32 100 SE25G31   29.95F WCI  19
$$

...ELSEWHERE IN IOWA...


CITY           SKY/WX    TMP DP  RH WIND       PRES   REMARKS
DES MOINES     FRZ DRZL  31  29  92 E13G22    29.88F VSB 1   WCI  21
IOWA CITY      CLOUDY    36  31  82 E12       29.98F HAZE    WCI  28
FORT DODGE     LGT SNOW  29  26  89 E7        29.89F FOG     WCI  22
MARSHALLTOWN   CLOUDY    32  30  92 E21       29.87F FOG     WCI  20
CEDAR RAPIDS   CLOUDY    34  29  82 E20G29    29.95F HAZE    WCI  23
$$

...NORTHERN ILLINOIS...


CITY           SKY/WX    TMP DP  RH WIND       PRES   REMARKS
CHICAGO-OHARE  CLOUDY    38  30  73 E13       30.10F WCI  30
CHICAGO-MIDWAY CLOUDY    38  32  79 E12       30.10F WCI  30
MOLINE         LGT RAIN  36  34  92 E20       29.99F FOG     WCI  25
ROCKFORD       FLURRIES  35  29  78 E13G20    30.09F WCI  26
PEORIA         LGT RAIN  39  37  92 E10       30.00F FOG     WCI  32
$$

NOTE: "FAIR" INDICATES FEW OR NO CLOUDS BELOW 12,000 FEET WITH NO
SIGNIFICANT WEATHER AND/OR OBSTRUCTIONS TO VISIBILITY. WIND
SPEEDS ARE IN MILES-PER-HOUR.




USA.gov is the U.S. government's official web portal to all federal, state and local government web resources and services.